Theta_e
314 316 317 318 319 319 320 320 320 320 319 319 320 320 320 320 321 320 320 320 319 319 319 318 317 318 318 317 317 317 315 314 309 312 293 293 293 292 291 293 294 294 296
311 311 312 312 313 315 316 316 317 317 319 319 320 320 320 320 320 320 319 320 319 318 318 318 318 318 316 317 317 315 314 315 311 307 291 289 290 291 291 290 291 292 292
305 307 307 308 308 309 309 308 306 306 305 306 309 311 311 311 311 312 312 312 315 316 317 317 317 315 314 313 312 312 314 307 300 295 292 288 288 290 288 289 288 288 289
300 301 301 300 299 298 297 298 299 300 301 303 304 304 304 305 305 304 303 304 305 308 309 310 308 307 306 306 305 304 302 299 293 290 290 287 287 286 287 285 283 285 285
295 295 295 295 296 296 296 296 297 299 299 299 300 300 300 301 299 299 297 299 299 301 301 303 302 295 291 296 299 299 298 294 289 289 287 286 286 284 284 286 285 285 283
294 294 294 294 294 294 294 294 295 295 297 297 297 295 295 293 294 294 296 297 297 295 296 296 296 291 294 294 295 296 297 295 288 288 287 286 286 285 286 285 283 282 281
293 292 291 291 291 291 290 290 291 293 294 291 292 292 291 292 294 294 292 293 293 294 291 291 291 291 290 291 292 292 290 294 294 291 288 288 286 287 286 285 284 284 282
291 290 289 289 289 289 289 289 290 290 289 289 289 289 289 289 292 292 292 291 291 291 291 290 291 291 291 290 289 288 288 288 288 289 290 289 289 288 287 287 286 283 282
289 289 288 288 288 288 287 290 290 287 288 288 288 287 287 287 291 292 291 289 288 288 288 289 289 289 290 291 287 286 286 286 289 289 290 290 290 290 288 285 282 282 280
289 289 288 287 287 288 289 289 287 287 286 286 286 286 286 286 290 292 289 286 286 286 287 286 286 287 290 291 286 286 285 285 286 286 286 288 289 289 288 286 285 283 282
288 287 285 286 288 289 289 287 287 286 286 286 286 285 286 285 287 292 291 287 286 285 285 285 286 290 291 290 289 286 286 286 286 285 285 285 285 285 285 285 286 285 283
286 285 285 286 287 288 287 286 286 286 286 286 285 285 285 284 288 290 290 289 288 284 283 284 286 291 290 290 287 289 288 286 285 284 284 283 283 283 284 284 284 284 284
285 285 286 286 287 287 287 286 286 286 287 285 286 284 281 283 284 287 289 288 287 283 284 288 290 289 288 288 288 288 284 284 283 282 281 281 283 284 284 284 283 283 283
286 286 286 286 286 286 287 287 286 286 286 285 284 280 281 282 284 284 284 283 284 285 287 287 287 287 287 285 285 285 284 283 281 281 282 284 283 283 284 284 282 282 281
286 286 286 286 287 286 286 286 286 283 286 285 281 281 281 283 284 286 286 285 285 285 285 285 284 283 283 283 283 283 283 283 282 281 281 283 283 283 282 282 281 280 279
285 285 286 286 286 285 284 284 287 287 288 287 286 283 281 286 288 288 288 288 286 285 283 282 282 282 281 281 282 282 283 283 283 283 283 283 283 282 281 280 280 280 279
285 285 285 285 284 283 282 282 282 286 288 288 288 287 286 288 289 289 289 288 287 285 282 281 281 281 281 281 281 281 281 282 281 281 282 282 281 281 280 281 281 279 279
285 285 285 285 285 283 282 281 281 280 279 280 285 286 287 288 288 289 289 288 285 285 283 283 282 282 282 282 281 281 281 281 281 280 281 281 280 281 280 280 279 278 278
284 284 284 284 284 281 280 280 277 277 279 278 279 282 284 287 287 287 287 284 282 278 278 276 276 275 275 275 275 275 276 277 277 278 278 278 278 278 277 277 277 275 275
279 279 279 278 277 275 275 274 278 281 280 278 277 278 279 282 279 276 275 275 275 273 272 270 268 267 267 268 269 269 270 270 270 271 271 272 273 273 273 273 273 272 272
278 278 279 278 277 277 278 281 281 280 276 274 273 277 278 273 268 266 265 265 265 264 263 264 263 263 263 263 264 265 264 265 265 265 266 267 267 269 270 270 270 270 270
280 280 280 280 280 281 281 281 280 278 273 269 266 273 273 264 263 261 260 260 259 260 259 260 261 261 260 261 261 262 262 262 261 261 263 263 264 265 266 267 266 267 267
279 278 277 277 275 273 273 272 271 268 265 263 262 262 261 261 260 259 260 259 258 258 257 258 259 257 256 257 258 259 260 260 260 259 260 261 261 262 262 263 263 263 264
274 273 272 269 269 268 267 266 265 264 264 263 262 262 262 261 261 260 257 257 256 256 255 255 255 256 256 255 256 256 255 256 257 258 258 259 260 260 260 260 262 262 263
269 269 268 268 267 266 265 266 265 265 264 263 262 263 261 259 259 258 257 257 255 256 254 253 256 256 254 253 254 255 255 259 259 259 257 257 258 257 256 258 258 259 260
269 268 268 267 267 267 266 265 264 264 264 263 262 261 261 260 260 259 258 257 257 258 257 256 256 253 254 255 256 258 260 264 263 262 263 259 257 257 257 257 255 258 258
Wind_Speed
13 12 12 10 9 9 9 8 9 8 8 8 9 9 10 9 10 10 10 10 9 9 9 10 12 11 9 8 8 9 11 9 11 9 2 4 5 7 9 13 11 13 13
9 8 8 7 7 8 8 8 7 7 6 7 7 7 8 8 8 8 10 9 10 12 11 11 11 8 11 10 9 9 8 9 6 11 2 2 4 8 8 11 8 8 7
7 8 7 7 7 8 6 5 4 4 3 3 3 4 2 2 1 2 2 3 4 5 6 6 10 8 6 4 4 5 7 1 2 2 3 1 2 3 3 6 6 6 6
8 8 8 8 7 6 5 6 6 5 5 4 3 2 1 2 2 3 3 5 7 7 7 4 4 4 2 3 3 3 3 2 2 3 2 2 1 1 2 6 4 3 5
10 9 8 7 6 6 6 6 6 5 4 4 4 2 1 2 1 2 3 4 7 7 4 5 3 1 1 2 2 4 4 3 3 3 2 2 1 2 5 4 5 5 2
9 8 7 8 7 6 6 7 6 6 5 5 5 4 4 2 4 4 3 3 4 4 5 5 3 1 3 4 3 5 6 3 3 4 3 4 4 4 5 6 4 4 4
8 7 8 8 7 7 6 7 6 6 5 5 4 3 2 1 3 3 3 3 3 3 3 3 3 2 3 2 2 3 3 2 3 4 4 5 3 6 7 7 6 3 3
8 8 8 8 7 7 6 6 5 4 5 4 4 4 2 1 5 5 3 1 2 3 4 5 5 4 4 2 3 2 2 2 2 2 4 4 3 7 10 6 6 4 4
9 9 8 8 8 8 7 7 5 5 5 4 4 3 2 0 4 5 2 2 3 4 5 6 6 7 10 5 2 0 3 4 4 2 2 6 7 11 8 7 5 6 2
10 10 8 8 9 9 8 7 4 4 5 4 5 3 3 3 3 3 4 2 2 2 3 3 6 6 7 1 4 3 3 3 4 4 4 7 6 5 8 4 5 4 1
9 9 9 9 10 10 9 5 6 7 7 6 6 3 3 2 0 6 6 3 3 2 2 3 2 5 7 4 2 1 2 4 3 3 3 3 4 4 2 3 2 1 1
11 11 10 9 7 8 10 7 8 8 6 5 5 4 3 3 4 4 5 5 6 3 3 1 1 5 7 6 3 1 7 4 2 2 3 3 3 3 2 1 2 1 1
12 12 11 10 8 8 10 9 6 5 5 5 4 4 3 3 4 7 8 8 9 4 3 4 11 13 10 6 7 8 6 3 2 1 1 1 1 1 0 1 1 2 4
14 13 12 11 9 8 6 6 7 6 5 5 5 5 4 3 3 4 2 3 8 7 9 6 9 9 9 7 5 5 3 3 2 2 0 1 0 1 1 1 2 1 3
14 13 12 9 9 8 6 5 5 2 5 7 6 6 7 5 4 6 5 3 3 7 6 3 3 3 3 3 2 2 1 2 2 1 2 2 2 3 3 2 3 3 5
14 12 11 10 8 7 8 8 7 8 9 9 12 8 2 6 12 11 10 11 11 10 4 5 4 3 3 2 2 2 2 2 2 2 3 3 4 4 4 3 4 6 7
14 14 11 11 10 10 9 9 11 10 15 15 15 13 11 12 14 13 13 13 10 6 3 3 3 2 2 2 2 2 2 3 3 3 4 4 4 5 4 5 5 5 6
12 15 12 11 10 10 9 9 10 10 10 6 11 12 15 14 13 13 13 9 4 3 2 2 3 3 2 2 2 2 3 3 2 2 3 4 4 5 5 5 5 6 6
11 10 10 9 8 8 8 8 7 8 9 7 5 5 6 16 16 13 10 4 5 5 5 5 4 4 4 4 3 3 4 4 4 4 4 4 4 4 4 4 5 5 6
8 12 11 9 8 8 8 8 9 9 8 6 6 5 3 5 4 4 4 4 5 5 4 4 3 3 2 3 3 3 3 4 4 4 4 4 4 4 4 4 4 6 5
9 9 13 10 9 9 9 10 9 8 8 7 5 3 7 7 6 5 5 4 5 4 4 3 3 3 2 2 2 3 3 2 3 3 4 4 4 5 4 4 5 5 5
8 9 9 9 9 9 8 8 9 9 8 8 4 6 14 5 5 5 4 4 4 3 2 3 3 3 2 2 1 2 2 2 2 3 3 3 4 4 4 4 4 5 5
8 9 8 8 7 9 7 6 7 7 7 6 5 5 4 5 5 4 4 3 3 3 2 2 3 2 2 1 1 0 0 1 2 2 2 3 3 3 3 4 4 3 3
8 8 9 8 7 7 7 7 6 7 7 6 6 5 5 5 5 5 4 3 2 2 2 2 2 3 1 1 1 2 3 3 2 3 2 2 3 3 2 2 3 3 3
7 8 8 8 8 8 8 7 7 7 6 6 6 5 4 4 4 3 4 3 3 3 3 3 2 3 3 4 4 5 4 6 4 4 2 3 3 3 3 3 2 2 2
7 7 7 7 7 7 7 7 7 6 6 5 4 4 4 4 3 4 4 3 3 2 2 2 2 4 4 4 5 6 6 6 6 7 4 3 3 3 2 3 3 2 2
Wind_Direction
185 189 193 193 192 194 204 202 204 202 199 209 215 219 220 222 223 228 229 233 232 248 248 249 255 250 250 248 242 243 246 250 260 271 151 191 172 179 202 206 197 193 204
183 168 171 156 168 189 200 199 194 206 203 214 217 221 221 222 223 228 243 236 239 248 242 241 241 240 243 244 248 253 243 256 256 270 132 165 193 202 194 198 192 197 195
157 157 161 172 177 194 194 178 174 174 165 155 191 204 186 131 327 316 327 315 298 283 269 263 274 248 255 274 282 272 276 319 142 177 211 180 168 187 155 184 174 166 167
154 157 167 181 183 179 167 160 152 144 149 160 160 192 263 280 311 323 322 302 281 282 289 313 326 330 325 293 267 281 271 232 218 156 215 213 161 165 156 171 166 164 166
155 161 175 161 157 151 149 147 140 150 140 149 156 167 193 242 272 277 282 289 290 288 301 295 290 294 255 305 297 292 260 202 198 149 188 218 163 115 197 174 181 162 98
160 170 156 149 147 153 145 142 144 143 151 155 174 182 193 203 245 259 273 283 269 271 281 279 273 11 281 244 279 273 256 223 187 175 175 200 186 171 161 173 147 153 180
159 158 153 144 151 162 151 150 152 157 150 170 168 142 137 63 4 330 316 286 299 288 274 269 279 225 231 218 66 40 12 58 180 177 200 200 189 177 154 157 171 155 169
164 158 156 154 157 149 145 157 146 141 156 142 117 103 101 13 357 344 4 13 290 285 323 318 309 307 259 227 161 127 118 134 151 170 194 182 184 160 167 171 164 113 72
169 169 164 158 151 152 150 158 152 145 131 129 125 115 119 83 19 357 42 51 27 7 352 339 344 328 338 300 17 213 69 6 45 59 131 151 154 158 134 118 147 154 171
175 168 158 146 148 152 147 153 139 134 124 129 126 141 136 79 14 91 107 79 73 55 9 355 4 329 344 49 29 32 32 9 8 47 31 41 50 129 148 24 141 171 91
141 141 137 143 153 155 147 146 140 136 141 138 133 131 128 126 289 126 113 131 129 108 64 12 20 3 80 86 124 130 182 151 64 42 60 56 53 70 66 53 73 131 230
138 136 139 144 151 159 142 135 141 138 137 142 147 141 114 81 68 72 65 75 89 99 75 57 14 85 63 58 54 92 130 93 62 69 55 43 38 41 18 28 17 340 316
139 142 142 143 153 160 141 142 131 133 137 148 146 120 102 77 71 56 87 90 78 91 109 105 98 86 68 67 79 93 61 59 66 54 73 77 212 245 207 321 290 296 278
143 148 145 148 155 153 143 136 137 156 147 150 139 129 138 128 123 125 126 93 95 94 104 90 97 84 80 74 67 63 66 75 97 128 124 327 34 8 325 245 269 255 267
148 153 147 149 157 142 120 134 141 110 158 165 157 151 146 146 154 151 149 126 103 112 114 100 94 91 83 70 85 90 79 52 24 349 304 293 284 270 266 239 253 243 239
151 154 153 148 145 132 122 110 100 128 133 130 130 131 140 143 147 147 131 130 123 126 101 102 96 91 78 66 35 10 5 347 303 244 251 258 278 278 278 270 249 254 267
154 150 147 148 151 145 144 140 131 115 115 111 114 124 138 139 139 139 135 138 134 115 104 116 117 123 90 30 354 334 318 305 309 286 283 272 274 279 269 284 273 267 270
146 150 151 152 151 152 153 150 152 143 131 120 120 128 129 133 134 138 140 141 139 85 83 82 77 64 35 36 1 346 341 343 340 322 296 288 293 298 302 291 276 273 277
145 149 145 142 143 136 131 138 137 126 132 132 124 90 109 113 100 100 108 115 121 93 81 76 61 55 49 45 32 23 20 23 12 4 4 357 345 333 316 317 315 305 305
132 132 132 131 136 133 139 144 144 140 135 128 129 135 129 110 112 105 84 102 103 100 88 95 92 92 73 54 35 33 32 30 18 15 5 359 359 345 333 330 328 319 314
137 137 140 138 145 147 153 151 144 137 134 131 124 135 149 122 126 125 127 113 124 124 123 117 111 86 62 55 47 42 39 25 21 8 0 351 348 335 336 317 310 298 294
138 146 149 147 143 147 146 141 139 136 136 137 131 114 120 106 121 124 126 133 136 125 123 125 121 114 111 86 59 47 28 10 357 356 344 332 331 332 329 317 312 310 310
133 134 129 121 115 119 111 108 114 118 126 129 134 128 121 125 132 137 132 124 119 126 129 121 111 93 58 78 116 143 19 297 277 274 297 314 317 319 317 307 305 299 298
121 123 121 115 116 116 121 123 116 117 128 132 135 140 143 141 141 139 138 137 118 100 102 121 144 154 159 269 237 220 233 256 252 267 262 279 292 300 290 274 299 297 295
109 116 122 128 130 126 124 123 128 131 136 144 150 143 138 137 127 133 134 144 146 154 183 180 180 201 228 263 282 286 274 286 275 249 245 244 270 301 311 301 295 297 294
103 109 113 117 122 128 129 133 135 138 144 145 135 126 131 143 159 161 168 175 178 186 208 220 225 234 261 268 273 276 277 281 275 257 238 219 235 257 246 263 273 269 290